SCP
-0 -0 -0 -0 0 0 0 0 0 0 0 0 0 0 0 0 0 0 0 0 0 0 0 0 0 0 0 0 0 0 0 0 0 0 0 0 0 0 0 0 0 0 0
-0 -0 -0 0 0 0 0 0 0 0 0 0 0 0 0 0 0 0 0 0 0 0 0 0 0 0 0 0 0 0 0 0 0 0 0 0 0 0 0 0 0 0 0
0 0 0 0 0 0 0 0 0 0 0 0 0 0 0 0 0 0 0 0 0 0 0 0 0 0 0 0 0 0 0 0 0 0 0 0 0 0 0 0 0 0 0
0 0 0 0 0 0 0 0 0 0 0 0 0 0 0 0 0 0 0 0 0 0 0 0 0 0 0 0 0 0 0 0 0 0 0 0 0 0 0 0 0 0 0
0 0 0 0 0 0 0 0 0 0 0 0 0 0 0 0 0 0 0 0 0 0 0 0 0 0 0 0 0 0 0 0 0 0 0 0 0 0 0 0 0 0 0
0 0 0 0 0 0 0 0 0 0 0 0 0 0 0 0 0 0 0 0 0 0 0 0 0 0 0 0 0 0 0 0 0 0 0 0 0 0 0 0 0 0 0
0 0 0 0 0 0 0 0 0 0 0 0 0 0 0 0 0 0 0 0 0 0 0 0 0 0 0 0 0 0 0 0 0 0 0 0 0 0 0 0 0 0 0
0 0 0 0 0 0 0 0 0 0 0 0 0 0 0 0 0 0 0 0 0 0 0 0 0 0 0 0 0 0 0 0 0 0 0 0 0 0 0 0 0 0 0
0 0 0 -0 0 0 0 0 0 0 0 0 0 0 1 1 0 0 0 0 0 0 0 0 0 0 0 0 0 0 0 0 0 0 0 0 0 0 0 0 0 0 0
0 0 0 0 0 0 0 0 0 0 0 0 0 0 0 0 0 0 0 1 0 0 0 0 0 0 0 0 0 0 0 0 0 0 0 0 0 0 0 0 0 0 0
0 0 0 0 0 0 0 0 0 0 0 0 0 0 0 0 0 0 0 0 0 0 0 0 0 0 0 0 0 0 0 0 0 0 0 0 0 0 0 0 0 0 0
0 0 0 0 0 0 0 0 0 0 0 0 0 0 0 0 0 0 0 0 0 0 0 0 0 0 0 0 0 0 0 0 0 0 0 0 0 0 0 0 0 0 0
0 0 0 0 0 0 0 0 0 0 0 0 0 0 0 0 0 0 0 0 0 0 0 0 0 0 0 0 0 0 0 0 0 0 0 0 0 0 0 0 0 0 0
0 0 0 0 0 0 0 0 0 0 0 0 0 0 0 0 0 0 0 0 0 0 0 0 0 0 0 0 0 0 0 0 0 0 0 0 0 0 0 0 0 0 0
0 0 0 0 0 0 0 0 0 0 0 0 0 0 0 0 0 0 0 0 0 0 0 0 0 0 0 0 0 0 0 0 0 0 0 0 0 0 0 0 0 0 0
0 0 0 0 0 0 0 0 0 0 0 0 0 0 0 0 0 0 0 0 0 0 0 0 0 0 0 0 0 0 0 0 0 0 0 0 0 0 0 0 0 0 0
0 0 0 0 0 0 0 0 0 0 0 0 0 0 0 0 0 0 0 0 0 0 0 0 0 0 0 0 0 0 0 0 0 0 0 0 0 0 0 0 0 0 0
0 0 0 0 0 0 0 0 0 0 0 0 0 0 0 0 0 0 0 0 0 0 0 0 0 0 0 0 0 0 0 0 0 0 0 0 0 0 0 0 0 0 0
0 0 0 0 0 0 0 0 0 0 0 0 0 0 0 0 0 0 0 0 0 0 0 0 0 0 0 0 0 0 0 0 0 0 0 0 0 0 0 0 0 0 0
0 0 0 0 0 0 0 0 0 0 0 0 0 0 0 0 0 0 0 0 0 0 0 0 0 0 0 0 0 0 0 0 0 0 0 0 0 0 0 0 0 0 0
0 0 0 0 0 0 0 0 0 0 0 0 0 0 0 0 0 0 0 0 0 0 0 0 0 0 0 0 0 0 0 0 0 0 0 0 0 0 0 0 0 0 0
0 0 0 0 0 0 0 0 0 0 0 0 0 0 0 0 0 0 0 0 0 0 0 0 0 0 0 0 0 0 0 0 0 0 0 0 0 0 0 0 0 0 0
0 0 0 0 0 0 0 0 0 0 0 0 0 0 0 0 0 0 0 0 0 0 0 0 0 0 0 0 0 0 0 0 0 0 0 0 0 0 0 0 0 0 0
0 0 0 0 0 0 0 0 0 0 0 0 0 0 0 0 0 0 0 0 0 0 0 0 0 0 0 0 0 0 0 0 0 0 0 0 0 0 0 0 0 0 0
0 0 0 0 0 0 0 0 0 0 0 0 0 0 0 0 0 0 0 0 0 0 0 0 0 0 0 0 0 0 0 0 0 0 0 0 0 0 0 0 0 0 0
0 0 0 0 0 0 0 0 0 0 0 0 0 0 0 0 0 0 0 0 0 0 0 0 0 0 0 0 0 0 0 0 0 0 0 0 0 0 0 0 0 0 0
Wind_Speed
3 3 6 6 7 6 5 5 4 4 4 4 4 4 5 5 5 5 4 4 3 3 3 3 3 3 3 4 4 4 4 4 4 3 3 3 3 3 4 4 5 3 5
3 3 6 6 6 5 5 4 4 4 3 3 3 4 4 5 5 5 4 4 3 3 2 2 1 1 2 2 3 3 3 3 3 3 2 2 2 2 3 4 4 3 5
3 3 4 6 5 5 5 4 4 4 3 4 4 5 5 5 5 5 5 5 4 3 3 2 1 1 1 1 1 2 2 2 2 3 3 1 1 1 2 3 4 4 5
4 3 3 5 5 4 4 4 4 4 4 5 5 6 6 6 6 6 6 6 5 5 4 4 3 2 1 1 1 1 2 2 2 3 2 0 1 2 3 3 4 4 4
2 1 1 3 3 2 3 3 4 4 5 6 6 7 7 7 7 7 7 7 7 6 6 5 5 4 3 2 2 2 2 2 2 3 1 0 1 2 3 3 4 4 4
2 1 0 1 2 2 3 3 4 5 5 6 6 7 8 8 8 8 8 8 8 8 7 7 6 6 5 4 4 3 2 2 1 1 1 0 1 3 4 4 4 4 5
2 1 1 1 2 2 3 4 4 5 6 7 7 8 7 8 8 9 9 9 9 9 9 8 7 7 7 6 5 4 3 2 0 0 1 1 2 4 4 4 5 5 5
2 1 1 3 2 3 4 4 5 5 6 7 8 8 8 8 8 9 10 10 10 10 10 9 8 9 8 7 7 6 4 3 1 0 1 2 4 5 5 5 5 5 5
1 1 2 2 3 4 5 5 6 7 7 7 8 8 8 7 8 8 9 9 10 10 10 10 9 9 9 8 8 7 6 4 1 1 2 2 5 6 6 6 6 6 6
2 2 2 2 3 3 4 6 7 7 7 8 8 8 7 7 7 8 8 9 10 9 9 9 9 10 10 9 9 8 7 3 2 2 2 3 6 7 7 7 7 6 6
1 2 2 2 2 3 3 4 5 7 8 8 7 8 6 3 3 4 6 8 8 8 8 8 8 9 9 8 8 8 5 1 2 2 2 5 7 7 8 8 7 7 6
0 1 1 2 2 2 2 3 3 3 4 4 3 4 2 2 3 4 6 8 7 7 7 7 8 7 6 3 4 5 1 2 2 2 3 8 8 8 8 8 8 8 7
1 0 1 1 1 2 2 2 2 2 2 3 4 3 2 2 2 2 2 3 4 5 3 4 4 2 2 2 2 2 2 2 2 2 3 7 7 8 8 9 9 9 8
1 1 1 1 1 1 1 2 2 2 2 2 3 3 2 2 2 2 2 2 2 2 2 2 2 2 2 3 3 3 3 2 2 2 3 8 8 8 8 9 9 9 9
2 1 1 1 0 1 1 2 2 2 2 2 2 3 2 1 2 2 2 2 2 2 2 2 2 2 2 2 3 3 4 4 4 3 3 7 8 8 9 10 10 10 10
3 2 1 1 0 1 1 1 1 2 2 2 2 3 2 1 1 2 2 2 2 2 2 2 2 2 2 2 2 3 3 3 4 4 3 4 7 7 8 9 10 11 11
3 2 1 1 0 1 1 2 2 2 2 2 2 3 3 2 1 1 2 2 2 2 2 2 2 1 1 1 2 3 3 3 3 4 3 2 3 5 7 8 9 10 11
2 1 1 1 1 2 2 2 2 2 2 2 2 2 3 2 2 1 1 2 3 2 1 1 1 1 1 1 1 2 2 2 3 3 3 2 2 2 4 6 7 9 10
3 1 1 1 1 2 2 2 2 2 2 2 2 2 3 3 2 1 1 2 2 1 1 1 0 0 1 1 2 2 2 2 2 3 3 3 3 2 2 4 6 7 9
2 1 0 1 2 2 2 2 2 2 2 2 2 2 3 2 3 2 2 2 1 1 1 1 1 1 1 1 2 1 1 2 1 2 3 2 2 3 3 3 3 4 7
1 0 1 1 2 1 1 2 2 2 3 3 3 3 3 3 3 2 2 2 1 1 1 1 1 1 1 0 1 1 1 1 1 1 1 1 2 2 2 3 2 2 3
2 1 1 1 1 1 1 1 1 2 2 3 3 3 3 3 3 2 2 2 1 1 1 1 0 0 1 0 1 1 1 2 1 1 1 2 2 1 2 3 3 3 3
3 3 2 2 2 2 2 1 2 2 2 3 3 3 4 4 4 3 2 2 2 1 1 2 1 1 1 1 0 1 1 1 2 1 1 1 1 1 2 2 3 3 4
4 3 2 2 2 2 1 1 1 1 2 3 3 3 5 4 4 3 3 2 2 1 2 2 1 2 2 1 1 0 1 2 1 1 1 1 1 2 2 3 3 3 3
3 2 2 2 2 2 1 1 1 1 2 3 3 4 4 4 4 4 3 2 2 1 2 2 1 2 2 2 1 1 0 0 1 1 1 1 1 1 2 3 2 3 3
2 2 2 2 3 2 2 1 1 2 3 4 4 4 4 4 4 4 3 2 2 2 2 2 2 2 2 2 2 1 2 1 1 1 1 1 1 1 1 2 2 2 3
Wind_Direction
212 214 203 175 164 162 163 164 163 160 159 161 160 163 163 161 162 161 159 153 144 132 120 111 103 96 88 84 84 76 65 63 63 67 76 81 86 89 106 106 96 88 106
172 184 196 185 176 174 178 185 187 188 190 197 195 195 194 189 187 186 186 183 177 174 164 142 127 113 105 86 78 69 56 47 45 52 62 66 82 106 121 122 117 115 112
140 173 198 197 193 191 196 206 209 215 222 226 222 220 220 214 208 205 205 206 205 203 201 201 204 180 146 107 59 43 35 24 20 30 44 39 33 146 144 143 137 125 120
141 163 194 204 203 206 214 225 234 240 246 247 244 239 235 232 226 222 223 222 223 221 221 224 230 229 237 255 280 339 5 4 360 23 39 336 273 187 165 159 150 140 129
125 144 207 218 224 230 247 251 258 264 267 266 262 255 249 244 240 235 234 234 234 232 233 234 235 238 243 251 262 287 322 335 353 27 16 310 268 231 187 178 164 152 145
116 106 312 256 266 264 273 285 289 291 291 288 282 273 265 259 253 248 245 244 244 242 241 238 236 239 243 250 259 271 288 309 10 21 358 298 239 238 201 188 176 169 160
112 55 349 314 312 304 297 294 294 299 304 304 301 295 286 278 271 263 257 254 252 250 247 245 241 240 244 247 254 262 270 284 205 322 313 277 242 238 213 197 189 179 172
134 94 2 339 339 334 320 315 316 314 310 309 309 309 306 300 289 280 272 265 262 258 254 249 244 243 244 246 250 256 262 267 250 242 277 257 242 235 222 207 198 191 184
120 75 8 349 348 341 332 327 328 325 327 324 316 313 312 314 305 294 290 285 278 268 260 254 249 249 246 246 249 252 255 253 219 229 259 253 247 238 227 214 204 196 187
65 37 0 351 359 354 341 337 341 339 339 336 332 328 327 325 319 306 298 292 288 282 270 260 254 254 252 249 251 254 254 250 213 222 247 259 256 241 227 213 204 193 186
47 18 5 1 2 355 341 359 358 353 351 348 343 340 344 342 329 312 305 298 291 290 287 276 266 260 259 255 253 254 256 215 207 222 230 256 259 246 228 211 201 195 187
239 340 8 4 1 357 352 3 352 352 348 343 333 335 337 329 317 316 315 316 312 309 306 294 280 267 259 253 256 261 235 217 217 225 233 250 254 248 230 209 201 199 190
196 293 360 359 1 3 349 347 350 347 344 341 343 341 338 336 327 327 322 325 328 325 319 309 297 268 243 232 228 221 222 223 220 229 238 248 253 249 230 209 203 202 194
170 211 288 356 11 357 355 347 347 344 338 338 336 342 350 346 341 330 322 317 317 309 302 294 280 269 250 230 217 218 221 223 226 221 235 246 251 249 228 212 204 202 198
184 221 261 301 352 343 354 339 356 334 325 321 331 339 349 342 332 332 325 324 318 311 298 293 280 269 258 234 220 216 217 222 230 224 232 244 250 247 227 214 206 202 200
201 221 249 266 307 356 351 330 321 324 325 329 334 335 342 332 321 329 328 325 317 308 294 281 271 260 253 236 227 218 221 221 229 226 224 240 245 242 229 216 208 202 201
200 222 260 232 5 348 337 331 336 325 334 336 331 334 339 334 321 317 316 311 303 304 302 295 293 264 245 241 235 229 221 220 220 224 225 223 232 236 223 215 212 205 201
186 211 282 325 0 340 338 328 325 331 339 329 325 328 331 330 326 317 312 302 302 310 316 294 285 287 263 257 258 254 237 224 222 220 219 214 208 216 216 210 210 208 203
186 204 274 331 343 338 337 334 331 335 336 325 325 324 323 328 329 314 298 294 307 321 326 311 323 255 257 270 258 248 244 236 228 226 215 210 200 192 191 210 209 210 207
174 201 295 344 345 341 341 343 342 342 334 330 327 323 322 321 325 314 292 298 312 321 327 328 301 278 248 256 271 281 271 260 231 226 218 209 196 195 192 193 197 212 212
164 197 287 315 325 350 351 340 332 322 319 326 326 330 330 325 322 313 303 304 303 279 275 291 299 287 273 314 38 335 328 301 248 237 220 209 209 203 191 194 193 190 210
193 220 249 261 295 314 291 272 260 274 291 290 305 321 327 330 325 313 304 294 283 272 291 281 213 280 279 115 112 75 346 346 325 268 220 211 215 202 205 205 198 196 193
211 218 223 238 268 299 319 335 341 345 337 339 333 328 326 326 322 313 297 281 272 241 247 247 204 179 231 281 139 142 144 238 309 320 260 220 201 203 219 203 201 202 200
219 221 227 243 270 293 323 358 357 344 319 299 301 305 315 323 322 321 314 291 270 251 249 252 212 188 171 212 289 244 192 178 173 315 331 348 228 217 218 218 211 201 199
214 216 229 255 279 297 313 314 332 309 283 293 304 317 324 325 326 327 322 313 291 264 254 251 237 202 183 185 195 202 149 112 169 172 276 323 325 260 228 213 205 203 199
219 226 234 254 276 295 311 306 290 297 307 319 325 328 326 322 321 330 325 321 301 274 252 241 227 208 199 190 196 198 187 185 188 179 202 246 273 277 252 215 202 203 199